This demonstration page uses our WeatherBlox Daily Observations layout. Learn more.

Left ArrowRight Arrow

Hourly Observations for November 24, 2019

Temp ( °F °C ) Dew Point ( °F °C ) Humidity (%) Winds ( mph kmh ) Pressure ( in mb ) Visibility ( mi km ) Precip ( " mm )
12:56 am 00:56 Clear 35 1.7 25 -3.9 67 67 WNW 9 15 29.92 1013 10 16 0.00 0.00
1:56 am 01:56 Clear 38 3.3 24 -4.4 57 57 WNW 9 15 29.90 1013 10 16 0.00 0.00
2:56 am 02:56 Clear 35 1.7 24 -4.4 64 64 WNW 13 20 29.90 1012 10 16 0.00 0.00
3:56 am 03:56 Clear 37 2.8 24 -4.4 59 59 W 8 13 29.89 1012 10 16 0.00 0.00
4:56 am 04:56 Clear 36 2.2 24 -4.4 62 62 W 6 9 29.88 1012 10 16 0.00 0.00
5:56 am 05:56 Clear 33 0.6 24 -4.4 70 70 WSW 8 13 29.88 1012 10 16 0.00 0.00
6:56 am 06:56 Clear 36 2.2 24 -4.4 62 62 W 8 13 29.87 1012 10 16 0.00 0.00
7:56 am 07:56 Sunny 32 0 25 -3.9 75 75 WSW 7 11 29.87 1012 10 16 0.00 0.00
8:56 am 08:56 Sunny 37 2.8 27 -2.8 67 67 SW 7 11 29.85 1011 10 16 0.00 0.00
9:56 am 09:56 Sunny 45 7.2 28 -2.2 52 52 W 7 11 29.82 1010 10 16 0.00 0.00
10:56 am 10:56 Sunny 47 8.3 30 -1.1 52 52 WSW 13 20 29.81 1010 10 16 0.00 0.00
11:56 am 11:56 Sunny 52 11.1 29 -1.7 41 41 W 13 20 29.77 1008 10 16 0.00 0.00
12:56 pm 12:56 Sunny 59 15 27 -2.8 29 29 W 13 20 29.71 1006 10 16 0.00 0.00
1:56 pm 13:56 Sunny 61 16.1 27 -2.8 27 27 WSW 13 20 29.68 1005 10 16 0.00 0.00
2:56 pm 14:56 Sunny 63 17.2 23 -5 22 22 W 15 24 29.67 1005 10 16 0.00 0.00
3:56 pm 15:56 Sunny 59 15 30 -1.1 33 33 SW 10 17 29.66 1004 10 16 0.00 0.00
4:56 pm 16:56 Sunny 55 12.8 31 -0.6 40 40 WSW 7 11 29.67 1005 10 16 0.00 0.00
5:56 pm 17:56 Clear 50 10 31 -0.6 48 48 SW 8 13 29.66 1005 10 16 0.00 0.00
6:56 pm 18:56 Clear 48 8.9 30 -1.1 50 50 SW 8 13 29.66 1004 10 16 0.00 0.00
7:56 pm 19:56 Clear 46 7.8 29 -1.7 51 51 SW 8 13 29.66 1005 10 16 0.00 0.00
8:56 pm 20:56 Clear 47 8.3 28 -2.2 48 48 WSW 8 13 29.64 1004 10 16 0.00 0.00
9:56 pm 21:56 Clear 44 6.7 28 -2.2 53 53 SW 8 13 29.65 1004 10 16 0.00 0.00
10:56 pm 22:56 Clear 40 4.4 28 -2.2 63 63 Calm 29.65 1004 10 16 0.00 0.00
11:56 pm 23:56 Clear 39 3.9 28 -2.2 65 65 WNW 7 11 29.64 1004 10 16 0.00 0.00

Powered by AerisWeather